Weather History for KPOF - March, 2012

Change the Weather History Date:

Friday, March 30, 2012

  Actual Average Record
Temperature  
Mean Temperature 70 °F -  
Max Temperature 79 °F 63 °F 85 °F (1963)
Min Temperature 60 °F 42 °F 20 °F (1964)
Cooling Degree Days 4    
Growing Degree Days 20 (Base 50)    
Moisture  
Dew Point 60 °F    
Average Humidity 72    
Maximum Humidity 90    
Minimum Humidity 52    
Precipitation  
Precipitation 0.00 in - - ()
Sea Level Pressure  
Sea Level Pressure 29.80 in    
Wind  
Wind Speed 7 mph (SSW)    
Max Wind Speed 17 mph    
Max Gust Speed 26 mph    
Visibility 10 miles    
Events      
Averages and records for this station are not official NWS values.
T = Trace of Precipitation, MM = Missing Value Source: NWS Daily Summary

Daily Weather History Graph

Daily Weather History Graph

Search for Another Location

Airport or City:

Trip Planner

Search our weather history database for the weather conditions in past years. The results will help you decide how hot, cold, wet, or windy it might be!

Date:

Astronomy

Mar. 30, 2012 Rise Set
Actual Time 6:49 AM CDT 7:22 PM CDT
Civil Twilight 6:23 AM CDT 7:48 PM CDT
Nautical Twilight 5:52 AM CDT 8:19 PM CDT
Astronomical Twilight 5:21 AM CDT 8:50 PM CDT
Moon 12:02 PM CDT (3/30) 1:51 AM CDT (3/30)
Length of Visible Light 13h 25m
Length of Day
12h 32m
Waxing Crescent, 49% of the Moon is Illuminated
Mar 30
Waxing Crescent
Mar 30
First Quarter
Apr 6
Full
Apr 13
Last Quarter
Apr 21
New

Hourly Weather History & Observations

Time (CDT) Temp. Dew Point Humidity Pressure Visibility Wind Dir Wind Speed Gust Speed Precip Events Conditions
12:53 AM 64.9 °F 59.0 °F 81% 29.83 in 10.0 mi SSW 4.6 mph - N/A   Clear
1:53 AM 64.0 °F 59.0 °F 84% 29.84 in 10.0 mi SSW 5.8 mph - N/A   Clear
2:53 AM 64.0 °F 59.0 °F 84% 29.85 in 10.0 mi SW 4.6 mph - N/A   Clear
3:53 AM 62.1 °F 59.0 °F 90% 29.84 in 10.0 mi SSW 4.6 mph - N/A   Clear
4:53 AM 61.0 °F 57.9 °F 90% 29.83 in 10.0 mi SW 3.5 mph - N/A   Clear
6:53 AM 60.1 °F 57.0 °F 90% 29.83 in 9.0 mi SW 6.9 mph - N/A   Clear
7:53 AM 62.1 °F 57.9 °F 86% 29.83 in 9.0 mi South 4.6 mph - N/A   Clear
8:53 AM 66.0 °F 59.0 °F 78% 29.86 in 10.0 mi North - - N/A   Clear
9:53 AM 69.1 °F 60.1 °F 73% 29.86 in 10.0 mi SW 10.4 mph 17.3 mph N/A   Clear
10:53 AM 71.1 °F 61.0 °F 70% 29.86 in 10.0 mi SSW 8.1 mph - N/A   Clear
11:53 AM 73.9 °F 61.0 °F 64% 29.83 in 10.0 mi South 11.5 mph - N/A   Clear
12:53 PM 75.9 °F 59.0 °F 56% 29.80 in 10.0 mi SSW 13.8 mph 20.7 mph N/A   Clear
1:53 PM 78.1 °F 60.1 °F 54% 29.78 in 10.0 mi SSW 15.0 mph 25.3 mph N/A   Clear
2:53 PM 79.0 °F 60.1 °F 52% 29.75 in 10.0 mi SW 17.3 mph 26.5 mph N/A   Scattered Clouds
3:53 PM 79.0 °F 60.1 °F 52% 29.75 in 10.0 mi SW 13.8 mph 20.7 mph N/A   Partly Cloudy
4:53 PM 78.1 °F 61.0 °F 56% 29.74 in 10.0 mi SSW 15.0 mph 20.7 mph N/A   Clear
5:53 PM 77.0 °F 60.1 °F 56% 29.73 in 10.0 mi SSW 13.8 mph - N/A   Clear
6:53 PM 73.9 °F 60.1 °F 62% 29.73 in 10.0 mi South 10.4 mph - N/A   Clear
7:53 PM 73.0 °F 60.1 °F 64% 29.74 in 10.0 mi South 6.9 mph - N/A   Clear
8:53 PM 69.1 °F 60.1 °F 73% 29.76 in 10.0 mi South 5.8 mph - N/A   Clear
9:53 PM 66.9 °F 60.1 °F 79% 29.78 in 10.0 mi SSW 3.5 mph - N/A   Clear
10:53 PM 64.0 °F 60.1 °F 87% 29.80 in 10.0 mi ESE 3.5 mph - N/A   Partly Cloudy
11:53 PM 64.9 °F 60.1 °F 84% 29.79 in 10.0 mi South 5.8 mph - N/A   Clear